Great Bend, KS

12:44 AM CDT on May 30, 2017 (GMT -0500)
Great Bend Municipal

Weather History for KGBD - March, 2013

Change the Weather History Date:

Monday, March 25, 2013

  Actual Average Record
Temperature  
Mean Temperature 25 °F -  
Max Temperature 33 °F 60 °F 91 °F (1976)
Min Temperature 17 °F 34 °F 11 °F (1955)
Degree Days  
Heating Degree Days 40    
Moisture  
Dew Point 14 °F    
Average Humidity 62    
Maximum Humidity 80    
Minimum Humidity 48    
Precipitation  
Precipitation 0.00 in - - ()
Sea Level Pressure  
Sea Level Pressure 30.30 in    
Wind  
Wind Speed 14 mph (NW)    
Max Wind Speed 21 mph    
Max Gust Speed 28 mph    
Visibility 10 miles    
Events      
Averages and records for this station are not official NWS values.
T = Trace of Precipitation, MM = Missing Value Source: NWS Daily Summary

Daily Weather History Graph

Daily Weather History Graph

Search for Another Location

Airport or City:

Trip Planner

Search our weather history database for the weather conditions in past years. The results will help you decide how hot, cold, wet, or windy it might be!

Date:

Astronomy

Mar. 25, 2013 Rise Set
Actual Time 7:30 AM CDT 7:52 PM CDT
Civil Twilight 7:04 AM CDT 8:18 PM CDT
Nautical Twilight 6:33 AM CDT 8:49 PM CDT
Astronomical Twilight 6:01 AM CDT 9:21 PM CDT
Moon 6:26 PM CDT (3/25) 6:13 AM CDT (3/25)
Length of Visible Light 13h 14m
Length of Day
12h 21m
Waxing Gibbous, 96% of the Moon is Illuminated
Mar 25
Waxing Gibbous
Mar 27
Full
Apr 2
Last Quarter
Apr 10
New
Apr 18
First Quarter

Hourly Weather History & Observations

Time (CDT) Temp. Windchill Dew Point Humidity Pressure Visibility Wind Dir Wind Speed Gust Speed Precip Events Conditions
12:15 AM 26.6 °F 14.3 °F 17.6 °F 69% 30.20 in 10.0 mi NNW 16.1 mph - N/A   Scattered Clouds
12:35 AM 26.6 °F 15.2 °F 17.6 °F 69% 30.20 in 10.0 mi North 13.8 mph - N/A   Scattered Clouds
12:55 AM 24.8 °F 14.6 °F 17.6 °F 74% 30.21 in 10.0 mi NNW 10.4 mph - N/A   Scattered Clouds
1:15 AM 24.8 °F 13.4 °F 14.0 °F 64% 30.21 in 10.0 mi North 12.7 mph - N/A   Scattered Clouds
1:35 AM 23.0 °F 13.1 °F 14.0 °F 68% 30.22 in 10.0 mi NNW 9.2 mph - N/A   Clear
1:55 AM 23.0 °F 11.7 °F 14.0 °F 68% 30.23 in 10.0 mi NNW 11.5 mph - N/A   Clear
2:15 AM 23.0 °F 10.6 °F 12.2 °F 63% 30.23 in 10.0 mi NNW 13.8 mph - N/A   Clear
2:35 AM 23.0 °F 11.7 °F 12.2 °F 63% 30.23 in 10.0 mi NNW 11.5 mph - N/A   Clear
2:55 AM 21.2 °F 9.5 °F 12.2 °F 68% 30.24 in 10.0 mi NW 11.5 mph - N/A   Clear
3:15 AM 21.2 °F 10.1 °F 12.2 °F 68% 30.24 in 10.0 mi NW 10.4 mph - N/A   Clear
3:55 AM 19.4 °F 6.6 °F 12.2 °F 74% 30.23 in 10.0 mi NW 12.7 mph - N/A   Clear
4:15 AM 19.4 °F 6.6 °F 10.4 °F 68% 30.23 in 10.0 mi NW 12.7 mph - N/A   Clear
4:35 AM 19.4 °F 6.6 °F 12.2 °F 74% 30.23 in 10.0 mi NW 12.7 mph - N/A   Clear
4:55 AM 19.4 °F 6.0 °F 10.4 °F 68% 30.24 in 10.0 mi WNW 13.8 mph - N/A   Clear
5:15 AM 19.4 °F 6.0 °F 10.4 °F 68% 30.24 in 10.0 mi WNW 13.8 mph - N/A   Clear
5:35 AM 19.4 °F 5.0 °F 10.4 °F 68% 30.25 in 10.0 mi NW 16.1 mph - N/A   Clear
5:55 AM 19.4 °F 4.5 °F 10.4 °F 68% 30.25 in 10.0 mi NW 17.3 mph 23.0 mph N/A   Clear
6:15 AM 19.4 °F 5.5 °F 10.4 °F 68% 30.26 in 10.0 mi NW 15.0 mph 24.2 mph N/A   Clear
6:35 AM 19.4 °F 5.5 °F 10.4 °F 68% 30.27 in 10.0 mi NW 15.0 mph - N/A   Clear
6:55 AM 17.6 °F 3.7 °F 10.4 °F 73% 30.28 in 10.0 mi NW 13.8 mph 20.7 mph N/A   Clear
7:15 AM 17.6 °F 3.7 °F 10.4 °F 73% 30.28 in 10.0 mi NW 13.8 mph - N/A   Clear
7:35 AM 17.6 °F 2.7 °F 10.4 °F 73% 30.29 in 10.0 mi NW 16.1 mph - N/A   Clear
7:55 AM 17.6 °F 3.2 °F 10.4 °F 73% 30.30 in 10.0 mi NW 15.0 mph - N/A   Clear
8:15 AM 19.4 °F 5.0 °F 10.4 °F 68% 30.30 in 10.0 mi NW 16.1 mph 20.7 mph N/A   Clear
8:35 AM 19.4 °F 5.0 °F 10.4 °F 68% 30.30 in 10.0 mi NW 16.1 mph 21.9 mph N/A   Clear
8:55 AM 21.2 °F 6.4 °F 12.2 °F 68% 30.31 in 10.0 mi NW 18.4 mph 25.3 mph N/A   Clear
9:15 AM 21.2 °F 7.3 °F 12.2 °F 68% 30.31 in 10.0 mi NW 16.1 mph 21.9 mph N/A   Clear
9:35 AM 23.0 °F 8.3 °F 12.2 °F 63% 30.32 in 10.0 mi NNW 19.6 mph 25.3 mph N/A   Clear
9:55 AM 24.8 °F 11.1 °F 12.2 °F 59% 30.33 in 10.0 mi NW 18.4 mph 24.2 mph N/A   Clear
10:15 AM 24.8 °F 10.7 °F 14.0 °F 64% 30.33 in 10.0 mi NNW 19.6 mph 23.0 mph N/A   Clear
10:35 AM 26.6 °F 13.4 °F 14.0 °F 59% 30.33 in 10.0 mi NNW 18.4 mph 25.3 mph N/A   Clear
10:55 AM 26.6 °F 12.7 °F 14.0 °F 59% 30.34 in 10.0 mi NNW 20.7 mph - N/A   Clear
11:15 AM 28.4 °F 15.8 °F 15.8 °F 59% 30.34 in 10.0 mi NNW 18.4 mph 27.6 mph N/A   Partly Cloudy
11:35 AM 28.4 °F 15.8 °F 15.8 °F 59% 30.34 in 10.0 mi NNW 18.4 mph 23.0 mph N/A   Scattered Clouds
11:55 AM 28.4 °F 15.4 °F 15.8 °F 59% 30.34 in 10.0 mi NW 19.6 mph 25.3 mph N/A   Mostly Cloudy
12:15 PM 30.2 °F 18.5 °F 15.8 °F 55% 30.34 in 10.0 mi NNW 17.3 mph 21.9 mph N/A   Mostly Cloudy
12:35 PM 30.2 °F 18.5 °F 14.0 °F 51% 30.34 in 10.0 mi NNW 17.3 mph - N/A   Mostly Cloudy
12:55 PM 30.2 °F 18.9 °F 14.0 °F 51% 30.34 in 10.0 mi NNW 16.1 mph 25.3 mph N/A   Mostly Cloudy
1:15 PM 30.2 °F 17.8 °F 15.8 °F 55% 30.33 in 10.0 mi NW 19.6 mph 25.3 mph N/A   Mostly Cloudy
1:35 PM 30.2 °F 18.5 °F 14.0 °F 51% 30.33 in 10.0 mi NNW 17.3 mph 24.2 mph N/A   Mostly Cloudy
1:55 PM 33.8 °F 22.2 °F 15.8 °F 48% 30.32 in 10.0 mi NNW 20.7 mph 27.6 mph N/A   Mostly Cloudy
2:15 PM 32.0 °F 20.1 °F 15.8 °F 51% 30.32 in 10.0 mi NNW 19.6 mph 26.5 mph N/A   Mostly Cloudy
2:35 PM 32.0 °F 20.1 °F 14.0 °F 48% 30.32 in 10.0 mi NNW 19.6 mph 24.2 mph N/A   Partly Cloudy
2:55 PM 32.0 °F 20.5 °F 15.8 °F 51% 30.31 in 10.0 mi NNW 18.4 mph 21.9 mph N/A   Mostly Cloudy
3:15 PM 33.8 °F 23.2 °F 15.8 °F 48% 30.31 in 10.0 mi NNW 17.3 mph 24.2 mph N/A   Overcast
3:35 PM 33.8 °F 23.2 °F 15.8 °F 48% 30.31 in 10.0 mi NNW 17.3 mph 23.0 mph N/A   Mostly Cloudy
3:55 PM 33.8 °F 23.5 °F 17.6 °F 52% 30.31 in 10.0 mi NNW 16.1 mph 24.2 mph N/A   Overcast
4:15 PM 32.0 °F 21.2 °F 14.0 °F 48% 30.30 in 10.0 mi NW 16.1 mph 25.3 mph N/A   Overcast
4:35 PM 32.0 °F 19.8 °F 14.0 °F 48% 30.30 in 10.0 mi NNW 20.7 mph - N/A   Mostly Cloudy
4:55 PM 33.8 °F 24.8 °F 15.8 °F 48% 30.31 in 10.0 mi NW 12.7 mph 20.7 mph N/A   Mostly Cloudy
5:15 PM 33.8 °F 23.9 °F 15.8 °F 48% 30.31 in 10.0 mi NNW 15.0 mph 23.0 mph N/A   Overcast
5:35 PM 33.8 °F 23.9 °F 15.8 °F 48% 30.31 in 10.0 mi NW 15.0 mph 21.9 mph N/A   Mostly Cloudy
5:55 PM 33.8 °F 24.3 °F 15.8 °F 48% 30.31 in 10.0 mi NNW 13.8 mph 21.9 mph N/A   Overcast
6:15 PM 32.0 °F 21.6 °F 15.8 °F 51% 30.31 in 10.0 mi NNW 15.0 mph 19.6 mph N/A   Mostly Cloudy
6:35 PM 33.8 °F 23.2 °F 15.8 °F 48% 30.31 in 10.0 mi NW 17.3 mph - N/A   Overcast
6:55 PM 32.0 °F 21.6 °F 15.8 °F 51% 30.31 in 10.0 mi NW 15.0 mph - N/A   Overcast
7:15 PM 32.0 °F 22.5 °F 15.8 °F 51% 30.32 in 10.0 mi NNW 12.7 mph 18.4 mph N/A   Mostly Cloudy
7:35 PM 30.2 °F 19.8 °F 15.8 °F 55% 30.32 in 10.0 mi NNW 13.8 mph - N/A   Scattered Clouds
7:55 PM 30.2 °F 21.9 °F 15.8 °F 55% 30.33 in 10.0 mi NNW 9.2 mph - N/A   Scattered Clouds
8:15 PM 28.4 °F 20.4 °F 15.8 °F 59% 30.33 in 10.0 mi NW 8.1 mph - N/A   Clear
8:35 PM 26.6 °F 19.1 °F 15.8 °F 64% 30.33 in 10.0 mi NW 6.9 mph - N/A   Clear
8:55 PM 26.6 °F 19.1 °F 15.8 °F 64% 30.33 in 10.0 mi NW 6.9 mph - N/A   Clear
9:15 PM 24.8 °F 17.9 °F 15.8 °F 69% 30.33 in 10.0 mi WNW 5.8 mph - N/A   Clear
9:35 PM 23.0 °F 14.7 °F 15.8 °F 74% 30.34 in 10.0 mi WNW 6.9 mph - N/A   Clear
9:55 PM 23.0 °F 14.7 °F 15.8 °F 74% 30.34 in 10.0 mi WNW 6.9 mph - N/A   Clear
10:15 PM 23.0 °F 14.7 °F 15.8 °F 74% 30.35 in 10.0 mi WNW 6.9 mph - N/A   Clear
10:35 PM 23.0 °F 14.7 °F 15.8 °F 74% 30.35 in 10.0 mi WNW 6.9 mph - N/A   Clear
10:55 PM 23.0 °F 13.1 °F 15.8 °F 74% 30.36 in 10.0 mi NW 9.2 mph - N/A   Clear
11:15 PM 23.0 °F 13.9 °F 15.8 °F 74% 30.36 in 10.0 mi NW 8.1 mph - N/A   Clear
11:35 PM 23.0 °F 14.7 °F 14.0 °F 68% 30.36 in 10.0 mi NW 6.9 mph - N/A   Clear
11:55 PM 21.2 °F 11.7 °F 15.8 °F 80% 30.36 in 10.0 mi NW 8.1 mph - N/A   Clear